Погода в Усть-Абакане

Россия / Республика Хакасия     53°49′58″N   91°23′39″E
темп.,
°C
ветер,
м/с
пор.,
м/с
влажн.,
%
обл.,
%
осадки,
мм/ч
давл.,
гПа
погр.,
м
8 августа, пн
пн801:00+14ссв11635 0.0 100911
04:00+13св11700 0.0 100911
07:00+15вюв006672 0.0 101050
10:00+20с00509 0.0 1010496
13:00+25св22380 0.0 10091154
16:00+26св333337 0.0 10081540
19:00+24ссв2248100 0.0 100836
22:00+19ссв2252100 0.0 100811
9 августа, вт
вт901:00+17с015598 0.0 100811
04:00+15ссв2264100 0.0 100814
07:00+17ссз0164100 0.0 101050
10:00+21ссз235068 0.0 1010671
13:00+24с44435 0.0 10091228
16:00+26с344026 0.0 10081664
19:00+25с22477 0.0 1007105
22:00+18ссв336371 0.0 100832
10 августа, ср
ср1001:00+17ссв2267100 0.0 100911
04:00+15с117286 0.0 100911
07:00+17с1269100 0.0 101067
10:00+22с225187 0.0 1010531
13:00+26с123724 0.0 10091889
16:00+26ссв333616 0.0 10092163
19:00+24всв234737 0.0 1009118
22:00+19св22561 0.0 100911
11 августа, чт
чт1101:00+17ссв22611 0.0 100912
04:00+15св22691 0.0 101011
07:00+17в11664 0.0 101060
10:00+22св22490 0.0 1010579
13:00+26св32380 0.0 10091263
16:00+27св22340 0.0 10071609
19:00+26ссв2344100 0.0 100689
22:00+20св2255100 0.0 100718
12 августа, пт
пт1201:00+19с115897 0.1 100814
04:00+17зюз227198 0.0 100816
07:00+17зюз1180100 0.4 100960
10:00+23с2253100 0.0 1007578
13:00+26с324378 0.0 10051315
16:00+27с554074 0.0 10041626
19:00+25зсз1151100 0.0 100545
22:00+16юз3890100 1.8 1007286